TimeCDT,TemperatureF,Dew PointF,Humidity,Sea Level PressureIn,VisibilityMPH,Wind Direction,Wind SpeedMPH,Gust SpeedMPH,PrecipitationIn,Events,Conditions,WindDirDegrees,DateUTC
12:51 AM,84.0,55.9,38,29.73,10.0,South,12.7,19.6,N/A,,Clear,180,2013-06-05 05:51:00
1:51 AM,80.1,57.9,47,29.77,10.0,SE,9.2,-,N/A,,Clear,130,2013-06-05 06:51:00
2:51 AM,77.0,61.0,58,29.75,10.0,East,8.1,-,N/A,,Clear,100,2013-06-05 07:51:00
3:51 AM,75.0,61.0,62,29.74,10.0,South,11.5,-,N/A,,Clear,180,2013-06-05 08:51:00
4:51 AM,73.0,61.0,66,29.75,10.0,ENE,3.5,-,N/A,,Clear,70,2013-06-05 09:51:00
5:51 AM,73.0,62.1,68,29.75,10.0,South,8.1,-,N/A,,Clear,180,2013-06-05 10:51:00
6:51 AM,73.0,62.1,68,29.76,10.0,South,10.4,-,N/A,,Clear,190,2013-06-05 11:51:00
7:51 AM,75.9,64.0,67,29.76,10.0,South,11.5,21.9,N/A,,Clear,190,2013-06-05 12:51:00
8:51 AM,78.1,64.0,62,29.78,10.0,SW,15.0,25.3,N/A,,Clear,220,2013-06-05 13:51:00
9:51 AM,82.0,62.1,51,29.77,10.0,SSW,13.8,24.2,N/A,,Clear,200,2013-06-05 14:51:00
10:51 AM,86.0,62.1,44,29.76,10.0,South,12.7,-,N/A,,Clear,180,2013-06-05 15:51:00
11:51 AM,93.9,57.9,30,29.75,10.0,South,12.7,-,N/A,,Clear,190,2013-06-05 16:51:00
12:51 PM,93.0,59.0,32,29.78,10.0,Variable,4.6,-,N/A,,Clear,0,2013-06-05 17:51:00
1:51 PM,96.1,59.0,29,29.75,10.0,ENE,8.1,-,N/A,,Clear,70,2013-06-05 18:51:00
2:38 PM,98.6,55.4,24,29.80,10.0,SSE,12.7,21.9,N/A,,Clear,150,2013-06-05 19:38:00
2:51 PM,99.0,55.9,24,29.72,10.0,ESE,10.4,19.6,N/A,,Clear,120,2013-06-05 19:51:00
3:51 PM,100.9,52.0,19,29.70,10.0,SE,11.5,-,N/A,,Clear,140,2013-06-05 20:51:00
4:51 PM,102.0,54.0,20,29.67,10.0,SE,13.8,-,N/A,,Clear,130,2013-06-05 21:51:00
5:51 PM,102.0,53.1,19,29.64,10.0,SSE,11.5,21.9,N/A,,Clear,150,2013-06-05 22:51:00
6:51 PM,99.0,51.1,20,29.65,10.0,SSE,13.8,-,N/A,,Clear,150,2013-06-05 23:51:00
7:13 PM,98.6,48.2,18,29.74,10.0,South,12.7,-,N/A,Thunderstorm,Clear,170,2013-06-06 00:13:00
7:47 PM,84.2,57.2,40,29.85,10.0,NW,21.9,38.0,N/A,Thunderstorm,Unknown,310,2013-06-06 00:47:00
7:51 PM,84.0,57.9,41,29.78,10.0,NW,25.3,33.4,N/A,Thunderstorm,Thunderstorm,310,2013-06-06 00:51:00
7:59 PM,77.0,60.8,57,29.84,10.0,NNW,33.4,43.7,0.00,Rain-Thunderstorm,Light Thunderstorms and Rain,330,2013-06-06 00:59:00
8:46 PM,75.2,60.8,61,29.84,10.0,NE,13.8,-,0.00,,Mostly Cloudy,50,2013-06-06 01:46:00
8:51 PM,77.0,59.0,54,29.75,10.0,ENE,16.1,-,0.00,Rain,Light Rain,70,2013-06-06 01:51:00
8:58 PM,77.0,59.0,54,29.81,10.0,ENE,20.7,25.3,0.00,Rain,Light Rain,70,2013-06-06 01:58:00
9:06 PM,78.8,57.2,47,29.80,10.0,ENE,20.7,26.5,0.00,Thunderstorm,Scattered Clouds,70,2013-06-06 02:06:00
9:21 PM,78.8,55.4,44,29.77,10.0,East,18.4,26.5,0.00,,Clear,90,2013-06-06 02:21:00
9:51 PM,81.0,52.0,36,29.72,10.0,East,12.7,21.9,0.00,,Clear,80,2013-06-06 02:51:00
10:51 PM,80.1,55.0,42,29.75,10.0,North,9.2,-,N/A,,Clear,10,2013-06-06 03:51:00
11:09 PM,80.6,57.2,45,29.87,10.0,North,15.0,-,N/A,Thunderstorm,Clear,360,2013-06-06 04:09:00
11:24 PM,80.6,55.4,42,29.84,10.0,ENE,12.7,-,N/A,,Clear,70,2013-06-06 04:24:00
11:51 PM,81.0,54.0,39,29.74,10.0,East,9.2,-,N/A,,Clear,100,2013-06-06 04:51:00